San Antonio, TX

3:09 PM CST on March 01, 2017 (GMT -0600)
Stinson Municipal

Weather History for KSSF - November, 2011

Change the Weather History Date:

Saturday, November 26, 2011

  Actual Average Record
Temperature  
Mean Temperature 62 °F -  
Max Temperature 71 °F 66 °F 79 °F (1998)
Min Temperature 52 °F 47 °F 33 °F (1999)
Degree Days  
Heating Degree Days 4    
Growing Degree Days 12 (Base 50)    
Moisture  
Dew Point 55 °F    
Average Humidity 75    
Maximum Humidity 97    
Minimum Humidity 40    
Precipitation  
Precipitation 0.54 in - - ()
Sea Level Pressure  
Sea Level Pressure 29.98 in    
Wind  
Wind Speed 8 mph (NNW)    
Max Wind Speed 18 mph    
Max Gust Speed 30 mph    
Visibility 8 miles    
Events Rain    
Averages and records for this station are not official NWS values.
T = Trace of Precipitation, MM = Missing Value Source: NWS Daily Summary

Daily Weather History Graph

Daily Weather History Graph

Search for Another Location

Airport or City:

Trip Planner

Search our weather history database for the weather conditions in past years. The results will help you decide how hot, cold, wet, or windy it might be!

Date:

Astronomy

Nov. 26, 2011 Rise Set
Actual Time 7:06 AM CST 5:35 PM CST
Civil Twilight 6:40 AM CST 6:01 PM CST
Nautical Twilight 6:11 AM CST 6:30 PM CST
Astronomical Twilight 5:43 AM CST 6:58 PM CST
Moon 8:34 AM CST (11/26) 7:12 PM CST (11/26)
Length of Visible Light 11h 20m
Length of Day
10h 28m
Waxing Crescent, 3% of the Moon is Illuminated
Nov 26
Waxing Crescent
Dec 2
First Quarter
Dec 10
Full
Dec 17
Last Quarter
Dec 24
New

Hourly Weather History & Observations

Time (CST) Temp. Dew Point Humidity Pressure Visibility Wind Dir Wind Speed Gust Speed Precip Events Conditions
12:39 AM 71.6 °F 64.4 °F 78% 29.90 in 10.0 mi South 10.4 mph - N/A   Overcast
12:53 AM 71.1 °F 64.0 °F 78% 29.87 in 10.0 mi SSE 9.2 mph - N/A   Overcast
1:53 AM 71.1 °F 64.9 °F 81% 29.87 in 10.0 mi West 8.1 mph - 0.00 in Rain Light Rain
2:28 AM 64.4 °F 62.6 °F 94% 29.90 in 1.8 mi WNW 9.2 mph - 0.25 in Rain Heavy Rain
2:38 AM 64.4 °F 62.6 °F 94% 29.89 in 2.5 mi NW 5.8 mph - 0.32 in Rain Heavy Rain
2:46 AM 64.4 °F 62.6 °F 94% 29.89 in 4.0 mi NW 8.1 mph - 0.33 in Rain Light Rain
2:53 AM 64.9 °F 62.1 °F 90% 29.86 in 5.0 mi NNW 5.8 mph - 0.36 in Rain Heavy Rain
3:53 AM 64.9 °F 63.0 °F 93% 29.85 in 10.0 mi Variable 4.6 mph - 0.00 in   Overcast
4:53 AM 66.0 °F 63.0 °F 90% 29.86 in 10.0 mi Calm Calm - 0.00 in Rain Light Rain
5:03 AM 64.4 °F 62.6 °F 94% 29.88 in 10.0 mi Calm Calm - 0.00 in Rain Light Rain
5:53 AM 64.9 °F 64.0 °F 97% 29.88 in 10.0 mi Calm Calm - 0.00 in   Overcast
6:53 AM 64.9 °F 64.0 °F 97% 29.89 in 10.0 mi Calm Calm - 0.00 in Rain Light Rain
7:53 AM 64.9 °F 63.0 °F 93% 29.91 in 7.0 mi Calm Calm - 0.00 in Rain Light Rain
8:23 AM 60.8 °F 55.4 °F 82% 29.96 in 10.0 mi NNW 17.3 mph 25.3 mph 0.00 in   Overcast
8:53 AM 61.0 °F 55.9 °F 83% 29.98 in 10.0 mi NNW 9.2 mph - 0.00 in   Overcast
9:13 AM 60.8 °F 55.4 °F 82% 30.00 in 3.0 mi North 3.5 mph - 0.04 in Rain Rain
9:19 AM 60.8 °F 57.2 °F 88% 29.99 in 1.8 mi North 6.9 mph - 0.11 in Rain Rain
9:31 AM 59.0 °F 57.2 °F 94% 29.99 in 3.0 mi North 6.9 mph - 0.17 in Rain Heavy Rain
9:53 AM 60.1 °F 57.0 °F 90% 29.98 in 10.0 mi NNW 5.8 mph - 0.18 in   Overcast
10:53 AM 63.0 °F 57.9 °F 84% 29.98 in 10.0 mi NNW 6.9 mph 26.5 mph N/A   Scattered Clouds
11:53 AM 64.9 °F 52.0 °F 63% 29.97 in 10.0 mi NNW 12.7 mph - N/A   Partly Cloudy
12:53 PM 68.0 °F 51.1 °F 55% 29.96 in 10.0 mi NNW 18.4 mph 25.3 mph N/A   Partly Cloudy
1:53 PM 70.0 °F 51.1 °F 51% 29.96 in 10.0 mi North 16.1 mph 23.0 mph N/A   Clear
2:53 PM 70.0 °F 46.0 °F 42% 30.00 in 10.0 mi NNW 18.4 mph 26.5 mph N/A   Clear
3:53 PM 68.0 °F 43.0 °F 40% 30.04 in 10.0 mi NNW 15.0 mph 26.5 mph N/A   Mostly Cloudy
4:53 PM 63.0 °F 41.0 °F 45% 30.09 in 10.0 mi NNW 18.4 mph 29.9 mph N/A   Partly Cloudy
6:53 PM 55.9 °F 39.0 °F 53% 30.19 in 10.0 mi NNW 6.9 mph - N/A   Partly Cloudy
8:53 PM 55.0 °F 33.1 °F 43% 30.26 in 10.0 mi NNW 13.8 mph 25.3 mph N/A   Clear
10:53 PM 52.0 °F 34.0 °F 50% 30.29 in 10.0 mi NNW 8.1 mph - N/A   Clear
11:53 PM 53.1 °F 32.0 °F 45% 30.30 in 10.0 mi NNW 10.4 mph 17.3 mph N/A   Clear